Location: Rodanthe
(35.5920°N, 75.4670°W)
Time: 19:22:46
(UTC-04:00)

ISS - All Passes

Search period start: 26 August 2016 00:00
Search period end: 05 September 2016 00:00
Orbit: 402 x 406 km, 51.6° (Epoch: 27 August)

Date Brightness Start Highest point End Pass type
(mag) Time Alt. Az. Time Alt. Az. Time Alt. Az.
26 Aug - 08:35:34 10° S 08:38:17 24° SE 08:41:01 10° ENE daylight
26 Aug - 10:11:48 10° W 10:14:40 27° NW 10:17:33 10° NNE daylight
26 Aug - 15:06:13 10° N 15:07:51 13° NNE 15:09:28 10° NE daylight
26 Aug - 16:41:26 10° NW 16:44:43 89° SW 16:47:59 10° SE daylight
27 Aug - 07:44:46 10° SSE 07:46:03 12° SE 07:47:20 10° ESE daylight
27 Aug - 09:18:57 10° WSW 09:22:09 52° NW 09:25:23 10° NE daylight
27 Aug - 15:49:07 10° NW 15:52:16 43° NE 15:55:24 10° ESE daylight
27 Aug - 17:26:33 10° W 17:28:27 15° SW 17:30:20 10° SSW daylight
28 Aug - 08:26:28 10° SW 08:29:43 71° SE 08:32:59 10° NE daylight
28 Aug - 10:04:34 10° WNW 10:06:30 15° NNW 10:08:27 10° N daylight
28 Aug - 14:56:58 10° NNW 14:59:43 24° NNE 15:02:26 10° E daylight
28 Aug - 16:33:15 10° WNW 16:36:11 30° SW 16:39:05 10° SSE daylight
29 Aug - 07:34:26 10° SSW 07:37:21 31° SE 07:40:18 10° ENE daylight
29 Aug - 09:11:09 10° W 09:13:51 23° NNW 09:16:33 10° NNE daylight
29 Aug - 14:05:03 10° N 14:07:03 15° NNE 14:09:02 10° ENE daylight
29 Aug - 15:40:33 10° NW 15:43:49 68° SW 15:47:03 10° SE daylight
30 Aug - 06:43:06 10° SSE 06:45:04 15° SE 06:47:02 10° E daylight
30 Aug - 08:18:08 10° WSW 08:21:15 41° NW 08:24:23 10° NE daylight
30 Aug - 13:14:07 10° NNE 13:14:17 10° NNE 13:14:27 10° NNE daylight
30 Aug - 14:48:07 10° NW 14:51:21 54° NE 14:54:34 10° ESE daylight
30 Aug - 16:26:18 10° WSW 16:27:26 11° SW 16:28:33 10° SSW daylight
31 Aug - 07:25:29 10° SW 07:28:45 88° WNW 07:32:02 10° NE daylight
31 Aug - 09:04:04 10° NW 09:05:38 13° NNW 09:07:12 10° N daylight
31 Aug - 13:55:53 10° NNW 13:58:48 28° NE 14:01:41 10° E daylight
31 Aug - 15:32:28 10° WNW 15:35:10 23° SW 15:37:50 10° S daylight
01 Sep - 06:33:14 10° SSW 06:36:19 40° SE 06:39:26 10° ENE daylight
01 Sep - 08:10:26 10° W 08:12:55 20° NNW 08:15:24 10° NNE daylight
01 Sep - 13:03:51 10° NNW 13:06:07 17° NNE 13:08:24 10° ENE daylight
01 Sep - 14:39:36 10° WNW 14:42:47 51° SW 14:45:58 10° SSE daylight
02 Sep - 05:41:35 10° S 05:43:58 19° SE 05:46:23 10° E visible
02 Sep - 07:17:14 10° WSW 07:20:15 33° NW 07:23:17 10° NNE daylight
02 Sep - 12:12:12 10° N 12:13:21 11° NNE 12:14:30 10° NE daylight
02 Sep - 13:47:02 10° NW 13:50:19 71° NE 13:53:34 10° SE daylight
03 Sep - 06:24:26 10° SW 06:27:41 69° NW 06:30:58 10° NE daylight
03 Sep - 08:03:35 10° NW 08:04:40 11° NNW 08:05:44 10° N daylight
03 Sep - 12:54:42 10° NNW 12:57:46 34° NE 13:00:47 10° ESE daylight
03 Sep - 14:31:39 10° W 14:34:01 19° SW 14:36:23 10° S daylight
04 Sep - 05:32:01 10° SSW 05:35:11 52° SE 05:38:24 10° ENE visible
04 Sep - 07:09:37 10° WNW 07:11:52 17° NNW 07:14:07 10° NNE daylight
04 Sep - 12:02:34 10° NNW 12:05:04 20° NNE 12:07:35 10° E daylight
04 Sep - 13:38:33 10° WNW 13:41:38 39° SW 13:44:42 10° SSE daylight
